Greenville, AL

2:55 AM CST on February 21, 2017 (GMT -0600)
Greenville Municipal

Weather History for KPRN - August, 2013

Change the Weather History Date:

Sunday, August 18, 2013

  Actual Average Record
Temperature  
Mean Temperature 73 °F -  
Max Temperature 77 °F 92 °F 101 °F (1952)
Min Temperature 69 °F 69 °F 64 °F (1992)
Cooling Degree Days 8    
Growing Degree Days 23 (Base 50)    
Moisture  
Dew Point 69 °F    
Average Humidity 90    
Maximum Humidity 97    
Minimum Humidity 27    
Precipitation  
Precipitation 0.24 in - - ()
Sea Level Pressure  
Sea Level Pressure 30.06 in    
Wind  
Wind Speed 5 mph (ESE)    
Max Wind Speed 9 mph    
Max Gust Speed -    
Visibility 10 miles    
Events Rain    
Averages and records for this station are not official NWS values.
T = Trace of Precipitation, MM = Missing Value Source: NWS Daily Summary

Daily Weather History Graph

Daily Weather History Graph

Search for Another Location

Airport or City:

Trip Planner

Search our weather history database for the weather conditions in past years. The results will help you decide how hot, cold, wet, or windy it might be!

Date:

Astronomy

Aug. 18, 2013 Rise Set
Actual Time 6:13 AM CDT 7:26 PM CDT
Civil Twilight 5:47 AM CDT 7:52 PM CDT
Nautical Twilight 5:17 AM CDT 8:22 PM CDT
Astronomical Twilight 4:45 AM CDT 8:53 PM CDT
Moon 5:28 PM CDT (8/18) 3:27 AM CDT (8/18)
Length of Visible Light 14h 04m
Length of Day
13h 13m
Waxing Gibbous, 92% of the Moon is Illuminated
Aug 18
Waxing Gibbous
Aug 20
Full
Aug 28
Last Quarter
Sep 5
New
Sep 12
First Quarter

Hourly Weather History & Observations

Time (CDT) Temp. Dew Point Humidity Pressure Visibility Wind Dir Wind Speed Gust Speed Precip Events Conditions
12:56 AM 70.0 °F 69.1 °F 97% 30.04 in 10.0 mi East 3.5 mph - 0.01 in Rain Light Rain
1:56 AM 70.0 °F 68.0 °F 93% 30.04 in 10.0 mi Calm Calm - 0.02 in Rain Light Rain
2:24 AM 69.8 °F 68.0 °F 94% 30.06 in 10.0 mi ESE 6.9 mph - 0.01 in Rain Light Rain
2:56 AM 70.0 °F 68.0 °F 93% 30.06 in 10.0 mi ESE 5.8 mph - 0.02 in Rain Light Rain
3:56 AM 70.0 °F 68.0 °F 93% 30.04 in 10.0 mi ESE 4.6 mph - 0.00 in   Mostly Cloudy
4:40 AM 69.8 °F 68.0 °F 94% 30.07 in 10.0 mi ESE 4.6 mph - N/A   Overcast
5:56 AM 70.0 °F 68.0 °F 93% 30.06 in 10.0 mi East 3.5 mph - 0.01 in Rain Light Rain
6:56 AM 70.0 °F 68.0 °F 93% 30.06 in 10.0 mi ENE 6.9 mph - 0.03 in Rain Rain
7:56 AM 70.0 °F 68.0 °F 93% 30.07 in 10.0 mi NE 4.6 mph - 0.01 in   Mostly Cloudy
8:56 AM 71.1 °F 69.1 °F 93% 30.08 in 10.0 mi East 6.9 mph - 0.03 in Rain Light Rain
9:56 AM 72.0 °F 70.0 °F 93% 30.08 in 10.0 mi East 8.1 mph - 0.00 in   Scattered Clouds
10:56 AM 73.0 °F 70.0 °F 90% 30.09 in 10.0 mi ESE 6.9 mph - 0.00 in Rain Light Rain
11:12 AM 73.4 °F 69.8 °F 88% 30.10 in 10.0 mi East 5.8 mph - 0.00 in Rain Light Rain
11:23 AM 73.4 °F 69.8 °F 88% 30.10 in 10.0 mi East 4.6 mph - 0.01 in Rain Light Rain
11:56 AM 73.0 °F 71.1 °F 93% 30.09 in 10.0 mi SSE 4.6 mph - 0.03 in Rain Light Rain
12:56 PM 73.9 °F 72.0 °F 93% 30.07 in 10.0 mi Variable 3.5 mph - 0.04 in Rain Light Rain
1:56 PM 73.9 °F 73.0 °F 97% 30.06 in 7.0 mi ESE 6.9 mph - 0.01 in   Overcast
2:56 PM 75.0 °F 73.0 °F 94% 30.06 in 5.0 mi SE 4.6 mph - 0.02 in Rain Light Rain
4:36 PM 77.0 °F 73.4 °F 89% 30.05 in 10.0 mi ESE 5.8 mph - 0.00 in   Overcast
4:56 PM 77.0 °F 73.9 °F 90% 30.05 in 10.0 mi Variable 3.5 mph - 0.00 in   Overcast
5:14 PM 75.2 °F 71.6 °F 89% 30.06 in 10.0 mi SE 9.2 mph - 0.00 in Rain Light Rain
5:27 PM 75.2 °F 71.6 °F 89% 30.05 in 10.0 mi SSE 6.9 mph - 0.00 in Rain Light Rain
5:56 PM 73.0 °F 70.0 °F 90% 30.05 in 10.0 mi South 5.8 mph - 0.00 in   Overcast
6:56 PM 73.0 °F 70.0 °F 90% 30.05 in 10.0 mi Variable 3.5 mph - 0.01 in   Scattered Clouds
7:07 PM 73.4 °F 69.8 °F 88% 30.07 in 10.0 mi South 3.5 mph - N/A   Mostly Cloudy
7:20 PM 73.4 °F 69.8 °F 88% 30.07 in 10.0 mi ESE 3.5 mph - N/A   Overcast
7:46 PM 71.6 °F 35.6 °F 27% - 10.0 mi SE 3.5 mph - N/A   Mostly Cloudy
8:56 PM 72.0 °F 70.0 °F 93% 30.05 in 10.0 mi SE 3.5 mph - N/A   Partly Cloudy
9:56 PM 71.1 °F 69.1 °F 93% 30.06 in 10.0 mi SE 3.5 mph - N/A   Clear
10:56 PM 71.1 °F 69.1 °F 93% 30.05 in 10.0 mi Calm Calm - N/A   Clear
11:56 PM 70.0 °F 69.1 °F 97% 30.05 in 10.0 mi ESE 4.6 mph - N/A   Clear